When you browse on this site, cookies collect data to enhance your experience and personalize the content and advertising you see.
Visit our Privacy Policy to learn more. By continuing to use the site, you agree to this use of cookies and data.
  • en Suisse
  • Liste des pays
  • À 7 jours
  • Température de l'eau
  • Carte satellitaire
  • Carte météo
  • Widgets météo
  • user-avatar
    Se connecter

    Météo par heure à Setif

    Ce jour, 21 Juillet, Dimanche

    Heure Température Précipitation Vent Pression Humidité
    00:00 +27°C° 0 mm 1 m/s 675 mmHg 40%
    01:00 +26°C° 0 mm 1 m/s 675 mmHg 41%
    02:00 +26°C° 0 mm 1 m/s 674 mmHg 42%
    03:00 +25°C° 0 mm 1 m/s 674 mmHg 42%
    04:00 +26°C° 0 mm 1 m/s 674 mmHg 40%
    05:00 +27°C° 0 mm 1 m/s 675 mmHg 37%
    06:00 +26°C° 0 mm 0 m/s 676 mmHg 35%
    07:00 +30°C° 0 mm 1 m/s 676 mmHg 31%
    08:00 +31°C° 0 mm 1 m/s 677 mmHg 27%
    09:00 +33°C° 0 mm 1 m/s 677 mmHg 23%
    10:00 +35°C° 0 mm 2 m/s 677 mmHg 21%
    11:00 +36°C° 0 mm 3 m/s 678 mmHg 20%
    12:00 +37°C° 0 mm 4 m/s 678 mmHg 18%
    13:00 +37°C° 0 mm 5 m/s 678 mmHg 17%
    14:00 +39°C° 0 mm 5 m/s 677 mmHg 16%
    15:00 +39°C° 0 mm 6 m/s 677 mmHg 15%
    16:00 +36°C° 0 mm 5 m/s 677 mmHg 17%
    17:00 +34°C° 0 mm 4 m/s 677 mmHg 19%
    18:00 +33°C° 0 mm 3 m/s 677 mmHg 21%
    19:00 +30°C° 0 mm 3 m/s 677 mmHg 25%
    20:00 +29°C° 0 mm 2 m/s 677 mmHg 29%
    21:00 +27°C° 0 mm 2 m/s 676 mmHg 33%
    22:00 +26°C° 0 mm 2 m/s 676 mmHg 37%
    23:00 +25°C° 0 mm 2 m/s 676 mmHg 40%

    Demain, 22 Juillet, Lundi

    Heure Température Précipitation Vent Pression Humidité
    00:00 +25°C° 0 mm 1 m/s 676 mmHg 44%
    01:00 +24°C° 0 mm 1 m/s 676 mmHg 47%
    02:00 +23°C° 0 mm 1 m/s 675 mmHg 49%
    03:00 +23°C° 0 mm 1 m/s 675 mmHg 51%
    04:00 +23°C° 0 mm 1 m/s 675 mmHg 48%
    05:00 +24°C° 0 mm 1 m/s 676 mmHg 45%
    06:00 +25°C° 0 mm 1 m/s 676 mmHg 42%
    07:00 +27°C° 0 mm 2 m/s 677 mmHg 35%
    08:00 +28°C° 0 mm 2 m/s 677 mmHg 29%
    09:00 +30°C° 0 mm 2 m/s 678 mmHg 22%
    10:00 +31°C° 0 mm 3 m/s 678 mmHg 21%
    11:00 +33°C° 0 mm 4 m/s 678 mmHg 19%
    12:00 +35°C° 0 mm 4 m/s 678 mmHg 17%
    13:00 +35°C° 0 mm 4 m/s 678 mmHg 17%
    14:00 +35°C° 0 mm 5 m/s 678 mmHg 17%
    15:00 +35°C° 0 mm 5 m/s 678 mmHg 17%
    16:00 +34°C° 0 mm 6 m/s 677 mmHg 19%
    17:00 +33°C° 0 mm 6 m/s 677 mmHg 21%
    18:00 +32°C° 0 mm 6 m/s 677 mmHg 23%
    19:00 +29°C° 0 mm 5 m/s 676 mmHg 26%
    20:00 +28°C° 0 mm 3 m/s 676 mmHg 28%
    21:00 +26°C° 0 mm 2 m/s 676 mmHg 30%
    22:00 +26°C° 0 mm 2 m/s 676 mmHg 31%
    23:00 +25°C° 0 mm 1 m/s 675 mmHg 32%

    Après-demain, 23 Juillet, Mardi

    Heure Température Précipitation Vent Pression Humidité
    00:00 +24°C° 0 mm 1 m/s 675 mmHg 32%
    01:00 +23°C° 0 mm 1 m/s 675 mmHg 33%
    02:00 +21°C° 0 mm 0 m/s 674 mmHg 33%
    03:00 +20°C° 0 mm 0 m/s 674 mmHg 33%
    04:00 +21°C° 0 mm 0 m/s 674 mmHg 32%
    05:00 +24°C° 0 mm 1 m/s 675 mmHg 31%
    06:00 +25°C° 0 mm 1 m/s 675 mmHg 30%
    07:00 +27°C° 0 mm 1 m/s 675 mmHg 28%
    08:00 +28°C° 0 mm 1 m/s 676 mmHg 27%
    09:00 +30°C° 0 mm 1 m/s 676 mmHg 25%
    10:00 +31°C° 0 mm 1 m/s 676 mmHg 22%
    11:00 +32°C° 0 mm 1 m/s 676 mmHg 19%
    12:00 +33°C° 0 mm 1 m/s 676 mmHg 16%
    13:00 +34°C° 0 mm 1 m/s 676 mmHg 15%
    14:00 +35°C° 0 mm 2 m/s 676 mmHg 14%
    15:00 +36°C° 0 mm 2 m/s 676 mmHg 14%
    16:00 +35°C° 0 mm 3 m/s 675 mmHg 15%
    17:00 +34°C° 0 mm 4 m/s 675 mmHg 17%
    18:00 +34°C° 0 mm 4 m/s 675 mmHg 19%
    19:00 +32°C° 0 mm 4 m/s 675 mmHg 23%
    20:00 +30°C° 0 mm 3 m/s 675 mmHg 27%
    21:00 +28°C° 0 mm 2 m/s 675 mmHg 31%
    22:00 +27°C° 0 mm 2 m/s 674 mmHg 31%
    23:00 +27°C° 0 mm 2 m/s 674 mmHg 32%

    24 Juillet, Mercredi

    Heure Température Précipitation Vent Pression Humidité
    00:00 +26°C° 0 mm 2 m/s 674 mmHg 32%
    01:00 +26°C° 0 mm 2 m/s 673 mmHg 33%
    02:00 +25°C° 0 mm 2 m/s 673 mmHg 33%
    03:00 +25°C° 0 mm 2 m/s 673 mmHg 34%
    04:00 +25°C° 0 mm 2 m/s 673 mmHg 32%
    05:00 +26°C° 0 mm 2 m/s 673 mmHg 30%
    06:00 +26°C° 0 mm 2 m/s 673 mmHg 28%
    07:00 +28°C° 0 mm 3 m/s 674 mmHg 25%
    08:00 +30°C° 0 mm 4 m/s 675 mmHg 22%
    09:00 +32°C° 0 mm 5 m/s 675 mmHg 19%
    10:00 +33°C° 0 mm 5 m/s 675 mmHg 19%
    11:00 +34°C° 0 mm 5 m/s 675 mmHg 19%
    12:00 +35°C° 0 mm 5 m/s 675 mmHg 18%
    13:00 +35°C° 0 mm 5 m/s 675 mmHg 18%
    14:00 +35°C° 0 mm 5 m/s 675 mmHg 18%
    15:00 +36°C° 0 mm 5 m/s 674 mmHg 18%
    16:00 +35°C° 0 mm 4 m/s 674 mmHg 18%
    17:00 +35°C° 0 mm 3 m/s 674 mmHg 19%
    18:00 +34°C° 0 mm 2 m/s 674 mmHg 19%
    19:00 +31°C° 0 mm 2 m/s 674 mmHg 23%
    20:00 +30°C° 0 mm 1 m/s 674 mmHg 26%
    21:00 +28°C° 0 mm 1 m/s 674 mmHg 30%
    22:00 +27°C° 0 mm 1 m/s 673 mmHg 31%
    23:00 +27°C° 0 mm 1 m/s 673 mmHg 31%

    25 Juillet, Jeudi

    Heure Température Précipitation Vent Pression Humidité
    00:00 +26°C° 0 mm 1 m/s 673 mmHg 32%
    01:00 +26°C° 0 mm 1 m/s 672 mmHg 33%
    02:00 +25°C° 0 mm 1 m/s 672 mmHg 34%
    03:00 +24°C° 0 mm 1 m/s 672 mmHg 36%
    04:00 +25°C° 0 mm 1 m/s 672 mmHg 34%
    05:00 +26°C° 0 mm 1 m/s 673 mmHg 32%
    06:00 +27°C° 0 mm 1 m/s 673 mmHg 30%
    07:00 +29°C° 0 mm 3 m/s 674 mmHg 26%
    08:00 +32°C° 0 mm 4 m/s 674 mmHg 22%
    09:00 +34°C° 0 mm 6 m/s 675 mmHg 18%
    10:00 +35°C° 0 mm 5 m/s 675 mmHg 16%
    11:00 +36°C° 0 mm 5 m/s 675 mmHg 15%
    12:00 +37°C° 0 mm 5 m/s 675 mmHg 14%
    13:00 +37°C° 0 mm 5 m/s 675 mmHg 14%
    14:00 +37°C° 0 mm 5 m/s 674 mmHg 14%
    15:00 +38°C° 0 mm 6 m/s 674 mmHg 14%
    16:00 +36°C° 0 mm 5 m/s 674 mmHg 16%
    17:00 +35°C° 0 mm 4 m/s 674 mmHg 17%
    18:00 +34°C° 0 mm 3 m/s 674 mmHg 19%
    19:00 +31°C° 0 mm 3 m/s 673 mmHg 23%
    20:00 +30°C° 0 mm 2 m/s 673 mmHg 26%
    21:00 +28°C° 0 mm 1 m/s 673 mmHg 30%
    22:00 +27°C° 0 mm 1 m/s 673 mmHg 30%
    23:00 +27°C° 0 mm 1 m/s 673 mmHg 31%

    26 Juillet, Vendredi

    Heure Température Précipitation Vent Pression Humidité
    00:00 +26°C° 0 mm 1 m/s 672 mmHg 32%
    01:00 +26°C° 0 mm 1 m/s 672 mmHg 32%
    02:00 +25°C° 0 mm 1 m/s 672 mmHg 32%
    03:00 +25°C° 0 mm 1 m/s 672 mmHg 32%
    04:00 +26°C° 0 mm 1 m/s 672 mmHg 31%
    05:00 +27°C° 0 mm 1 m/s 673 mmHg 29%
    06:00 +28°C° 0 mm 1 m/s 673 mmHg 27%
    07:00 +29°C° 0 mm 1 m/s 674 mmHg 25%
    08:00 +31°C° 0 mm 2 m/s 674 mmHg 22%
    09:00 +32°C° 0 mm 2 m/s 675 mmHg 20%
    10:00 +34°C° 0 mm 3 m/s 675 mmHg 19%
    11:00 +35°C° 0 mm 3 m/s 675 mmHg 17%
    12:00 +36°C° 0 mm 4 m/s 675 mmHg 16%
    13:00 +36°C° 0 mm 4 m/s 675 mmHg 17%
    14:00 +36°C° 0 mm 5 m/s 675 mmHg 17%
    15:00 +36°C° 0 mm 6 m/s 675 mmHg 17%
    16:00 +34°C° 0 mm 5 m/s 674 mmHg 19%
    17:00 +33°C° 0 mm 5 m/s 674 mmHg 22%
    18:00 +32°C° 0 mm 5 m/s 674 mmHg 24%
    19:00 +29°C° 0 mm 4 m/s 674 mmHg 28%
    20:00 +27°C° 0 mm 3 m/s 674 mmHg 33%
    21:00 +26°C° 0 mm 1 m/s 674 mmHg 38%
    22:00 +25°C° 0 mm 1 m/s 674 mmHg 40%
    23:00 +24°C° 0 mm 1 m/s 673 mmHg 42%
    Voir plus